Location: *
(37.4917°N, 71.5558°E)
Time: 20:18:57
(UTC+00:00)

Resurs 1-3 - Pass Details

Date: 09 April 2020
Orbit: 630 x 632 km, 97.9° (Epoch: 31 May)

Event Time Altitude Azimuth Distance (km) Brightness Sun altitude
Exits shadow 15:26:46 47° 141° (SE) 843 3.8 -20.1°
Maximum altitude 15:27:55 70° 76° (ENE) 676 3.5 -20.3°
Drops below altitude 10° 15:32:18 10° 353° (N) 2,019 6.6 -21.0°
Sets 15:34:30 0° 351° (N) 2,932 7.6 -21.4°
